Orbital Elements at Epoch 2459200.5 (2020-Dec-17.0) TDB
Reference: JPL 19 (heliocentric ecliptic J2000)
Element | Value | Uncertainty (1-sigma) | Units |
e | .3060456555050281 | 5.798e-08 | |
a | 2.554218245835446 | 1.1846e-08 | au |
q | 1.772510848485834 | 1.4316e-07 | au |
i | 6.70384227824074 | 3.8495e-06 | deg |
node | 27.6087479138694 | 3.5547e-05 | deg |
peri | 355.1458113387478 | 3.6478e-05 | deg |
M | 227.8318678162325 | 1.5718e-05 | deg |
tp | 2459747.906163489689 (2022-Jun-17.40616349) | 6.8013e-05 | TDB |
period | 1491.026736931456 4.08 | 1.0373e-05 2.84e-08 | d yr |
n | .2414443625208778 | 1.6797e-09 | deg/d |
Q | 3.335925643185058 | 1.5471e-08 | au |
|
| | Orbit Determination Parameters
Additional Information
|